Weather History for KP59 - April, 2013

Change the Weather History Date:

Friday, April 19, 2013

  Actual Average Record
Temperature  
Mean Temperature 28 °F -  
Max Temperature 32 °F 43 °F 70 °F (2005)
Min Temperature 24 °F 29 °F 17 °F (2011)
Degree Days  
Heating Degree Days 37    
Moisture  
Dew Point 26 °F    
Average Humidity 93    
Maximum Humidity 100    
Minimum Humidity 81    
Precipitation  
Precipitation 0.17 in - - ()
Sea Level Pressure  
Sea Level Pressure 29.37 in    
Wind  
Wind Speed 28 mph (ENE)    
Max Wind Speed 39 mph    
Max Gust Speed 52 mph    
Averages and records for this station are not official NWS values.
T = Trace of Precipitation, MM = Missing Value Source: NWS Daily Summary

Daily Weather History Graph

Daily Weather History Graph

Search for Another Location

Airport or City:

Trip Planner

Search our weather history database for the weather conditions in past years. The results will help you decide how hot, cold, wet, or windy it might be!

Date:

Astronomy

Apr. 19, 2013 Rise Set
Actual Time 6:55 AM EDT 8:46 PM EDT
Civil Twilight 6:22 AM EDT 9:19 PM EDT
Nautical Twilight 5:42 AM EDT 10:00 PM EDT
Astronomical Twilight 4:58 AM EDT 10:44 PM EDT
Moon 2:06 PM EDT (4/19) 3:36 AM EDT (4/19)
Length of Visible Light 14h 57m
Length of Day
13h 51m
First Quarter, 61% of the Moon is Illuminated
Apr 19
First Quarter
Apr 25
Full
May 2
Last Quarter
May 9
New
May 18
First Quarter

Hourly Weather History & Observations

Time (EDT) Temp. Windchill Dew Point Humidity Pressure Visibility Wind Dir Wind Speed Gust Speed Precip Events Conditions
12:51 AM 30.9 °F 16.7 °F 30.0 °F 96% 29.45 in - East 27.6 mph 42.6 mph 0.06 in   Unknown
1:51 AM 30.9 °F 16.4 °F 30.0 °F 96% 29.39 in - East 28.8 mph 48.3 mph 0.01 in   Unknown
2:51 AM 30.9 °F 17.5 °F 28.9 °F 92% 29.33 in - East 24.2 mph 44.9 mph N/A   Unknown
3:51 AM 30.9 °F 17.5 °F 28.9 °F 92% 29.29 in - East 24.2 mph 40.3 mph N/A   Unknown
4:51 AM 30.0 °F 16.3 °F 28.9 °F 96% 29.25 in - ESE 24.2 mph 36.8 mph N/A   Unknown
5:51 AM 30.9 °F 19.8 °F 30.0 °F 96% 29.21 in - East 16.1 mph 33.4 mph 0.01 in   Unknown
6:51 AM 30.9 °F 19.4 °F 30.0 °F 96% 29.17 in - East 17.3 mph 31.1 mph 0.01 in   Unknown
7:51 AM 30.9 °F 20.7 °F 30.0 °F 96% 29.13 in - East 13.8 mph 33.4 mph 0.01 in   Unknown
8:51 AM 32.0 °F 18.6 °F 30.9 °F 96% 29.10 in - ENE 25.3 mph 33.4 mph 0.03 in   Unknown
9:51 AM 32.0 °F 16.2 °F 30.9 °F 96% 29.08 in - ENE 38.0 mph 44.9 mph 0.02 in   Unknown
10:51 AM 30.0 °F 13.8 °F 30.0 °F 100% 29.11 in - ENE 35.7 mph 51.8 mph 0.01 in   Unknown
11:51 AM 30.0 °F 14.9 °F 30.0 °F 100% 29.14 in - ENE 29.9 mph 50.6 mph 0.01 in   Unknown
12:51 PM 28.9 °F 11.7 °F 28.9 °F 100% 29.16 in - ENE 39.1 mph 48.3 mph N/A   Unknown
2:51 PM 26.1 °F 8.4 °F 26.1 °F 100% 29.29 in - NE 35.7 mph 49.5 mph N/A   Unknown
3:51 PM 24.1 °F 6.1 °F 24.1 °F 100% 29.36 in - NE 33.4 mph 49.5 mph N/A   Unknown
4:51 PM 24.1 °F 6.4 °F 21.9 °F 91% 29.44 in - NE 32.2 mph 48.3 mph N/A   Unknown
5:51 PM 24.1 °F 6.9 °F 21.9 °F 91% 29.51 in - NE 29.9 mph 39.1 mph N/A   Unknown
6:51 PM 24.1 °F 6.6 °F 21.9 °F 91% 29.56 in - NE 31.1 mph 43.7 mph N/A   Unknown
7:51 PM 24.1 °F 5.6 °F 21.9 °F 91% 29.61 in - NNE 35.7 mph 47.2 mph N/A   Unknown
8:51 PM 24.1 °F 5.0 °F 21.0 °F 88% 29.66 in - NNE 39.1 mph 51.8 mph N/A   Unknown
9:51 PM 24.1 °F 5.6 °F 19.9 °F 84% 29.72 in - NNE 35.7 mph 48.3 mph N/A   Unknown
10:51 PM 24.1 °F 5.0 °F 19.0 °F 81% 29.72 in - NNE 39.1 mph 48.3 mph N/A   Unknown
11:51 PM 24.1 °F 6.6 °F 19.0 °F 81% 29.80 in - NNE 31.1 mph 43.7 mph N/A   Unknown